Weather in Alekseyevka

Russia / Tambov Oblast     52°25′29″N   41°06′47″E
temp.,
°C
wind,
m/s
gust,
m/s
humid.,
%
clouds,
%
prec.,
mm/h
press.,
hPa
HPBL,
m
3 march, wed
wed300:00−1nw5109795 0.4 1009446
03:00−4nw5119678 0.4 1010259
06:00−1nw6129498 0.1 1011742
09:00−2nnw7128798 0.5 1013845
12:00−3nnw7118731 0.0 1015678
15:00−3nw6108632 0.0 1016810
18:00−5wnw499052 0.0 1016159
21:00−5wsw5109441 0.0 1016254
4 march, thu
thu400:00−2wsw6119499 0.1 1014463
03:00−3w61392100 0.1 1013558
06:00−2wsw71593100 0.1 1010556
09:00−2wsw81790100 0.3 1009561
12:00+1wsw9168757 0.0 1007826
15:00+1wsw8158570 0.0 1006862
18:00+1wsw61388100 0.0 1004739
21:00+1wsw51291100 0.0 1004634
5 march, fri
fri500:00+1wsw61198100 0.4 1001413
03:00+1wsw61398100 2.1 1001485
06:000wnw61198100 1.3 1002602
09:00−2nnw5793100 1.5 1004418
12:00−2nnw359295 0.0 1007415
15:00−2nnw359075 0.0 1010470
18:00−5nw119361 0.0 101121
21:00−6nw229278 0.0 101321
6 march, sat
sat600:00−6nnw2394100 0.0 101449
03:00−7n3591100 0.0 101599
06:00−9n2385100 0.0 101536
09:00−9nnw3587100 0.0 1016169
12:00−7nnw348623 0.0 1015253
15:00−6nw238412 0.0 1015303
18:00−9s118714 0.0 101521
21:00−8nne239657 0.1 101668
7 march, sun
sun700:00−9n4794100 0.6 1017337
03:00−13nw338887 0.6 101841
06:00−13sw35900 0.0 101789
09:00−8sw7148421 0.0 1014617
12:00−5sw91670100 0.0 10111069
15:00−3sw91868100 0.0 10061278
18:00−3wsw112087100 0.1 10031287
21:00−2wsw91978100 0.6 10001140